Regional Weather Roundup
Issued by NWS Sterling, VA

Home | Current Version | Previous Version | Text Only | Print | Product List | Glossary On
Versions: 1 2 3 4 5 6 7 8 9 10 11 12 13 14 15 16 17 18 19 20 21 22 23 24 25 26 27 28 29 30 31 32 33 34 35 36 37 38 39 40 41 42 43 44 45 46 47 48 49 50
000
ASUS41 KLWX 271310
RWRLWX

REGIONAL WEATHER ROUNDUP
NATIONAL WEATHER SERVICE BALTIMORE MD/WASHINGTON DC
900 AM EDT MON APR 27 2015

Note: "FAIR" indicates few or no clouds below 12,000 feet
with no significant weather and/or obstructions to visibility.
 TC=TEMPERATURE CELSIUS

 * =Non NWS site. Station does not report precipitation (e.g. rain,
    snow, etc.), thunder, or fog.

DCZ001-MDZ009-015-VAZ040>042-051-053>054-271400-
WASHINGTON METRO

CITY           SKY/WX    TMP DP  RH WIND       PRES   REMARKS
WASHINGTON NAT MOSUNNY   56  34  43 NW13      29.79S
DULLES         MOSUNNY   52  33  48 NW13      29.79R
ANDREWS AFB    MOSUNNY   53  33  45 NW13      29.77R
FT BELVOIR     SUNNY     54  32  44 NW10      29.79R
QUANTICO       MOSUNNY   54  32  43 N9        29.81R
LEESBURG*      CLOUDY    52  37  58 NW13G21   29.80S
MANASSAS*      SUNNY     54  36  50 NW14      29.80R
GAITHERSBURG*  CLOUDY    48  32  53 NW7       29.82R

$$

MDZ006>007-011-014-271400-
BALTIMORE METRO

CITY           SKY/WX    TMP DP  RH WIND       PRES   REMARKS
BWI AIRPORT    PTSUNNY   51  32  48 NW3       29.77R
MD SCIENCE CTR   N/A     53  29  39 MISG      29.78R
MARTIN STATE   CLOUDY    52  37  58 W7        29.79R
ANNAPOLIS      CLOUDY    52  34  50 NW6       29.77S
FORT MEADE*    CLOUDY    50  34  53 NW3       29.80R

$$

MDZ012-015-019>023-271400-
MARYLAND EASTERN SHORE

CITY           SKY/WX    TMP DP  RH WIND       PRES   REMARKS
OCEAN CITY     CLOUDY    50  40  68 N7        29.75R
SALISBURY      PTSUNNY   51  39  63 N5        29.75R
BAY BRIDGE AP*   N/A    N/A N/A N/A NW7       29.78R
CAMBRIDGE*     SUNNY     54  36  50 NW8       29.76R
EASTON*        MOSUNNY   54  39  58 N3        29.80R

$$

MDZ017>025-271400-
SOUTHERN MARYLAND

CITY           SKY/WX    TMP DP  RH WIND       PRES   REMARKS
PATUXENT RIVER MOSUNNY   53  41  63 NW8       29.77R
ST INIGOES     SUNNY     55  39  54 N8        29.77R
LEONARDTOWN*   SUNNY     52  32  46 N5        29.79R

$$

MDZ003>005-271400-
NORTH CENTRAL MARYLAND

CITY           SKY/WX    TMP DP  RH WIND       PRES   REMARKS
FREDERICK*     CLOUDY    52  34  50 CALM      29.82R
HAGERSTOWN APT CLOUDY    49  34  56 NW8       29.79R
WESTMINSTER*   CLOUDY    48  32  53 NW5       29.77R

$$

MDZ501>502-271400-
WESTERN MARYLAND

CITY           SKY/WX    TMP DP  RH WIND       PRES   REMARKS
OAKLAND*       CLOUDY    32 N/A N/A NW7       29.80R
CUMBERLAND*    PTSUNNY   50  32  50 NE5       29.86R

$$

VAZ025>031-271400-
SHENANDOAH VALLEY

CITY           SKY/WX    TMP DP  RH WIND       PRES   REMARKS
WINCHESTER*    SUNNY     50  30  46 NW12      29.80R
FRONT ROYAL*   FAIR      50  34  53 W5        29.80S
LURAY*         FAIR      52  36  54 N3        29.81S
NEW MARKET*    FAIR      47  34  60 E3        29.81S
STAUNTON*      SUNNY     46  35  65 CALM      29.84R
WAYNESBORO*    FAIR      46  32  58 NW5       29.82R

$$

WVZ021-048>050-054>055-271400-
EASTERN WEST VIRGINIA PANHANDLE

CITY           SKY/WX    TMP DP  RH WIND       PRES   REMARKS
MARTINSBURG    CLOUDY    50  33  52 NW10      29.80R
PETERSBURG*    SUNNY     47  36  64 CALM      29.84S

$$

VAZ036>039-050-271400-
CENTRAL FOOTHILLS

CITY           SKY/WX    TMP DP  RH WIND       PRES   REMARKS
CHARLOTTESVILL SUNNY     52  35  52 N5        29.82R
CULPEPER*      SUNNY     54  34  47 NW6       29.82R
ORANGE*        SUNNY     54  36  50 SW6       29.82R
GORDONSVILLE*  FAIR      52  32  46 W8        29.81R
WARRENTON*     FAIR      54  38  54 NW10      29.80R

$$

VAZ055>057-271400-
NORTH AND CENTRAL PIEDMONT

CITY           SKY/WX    TMP DP  RH WIND       PRES   REMARKS
FREDERICKSBRG* SUNNY     53  35  51 NW5       29.81R
STAFFORD*      SUNNY     51  33  49 NW10      29.84R

$$

NCZ024-NYZ072-PAZ021-071-VAZ022-071-271400-
OTHER REGIONAL OBSERVATIONS

CITY           SKY/WX    TMP DP  RH WIND       PRES   REMARKS
NEW YORK CITY  CLOUDY    51  31  46 VRB3      29.70S
PHILADELPHIA   PTSUNNY   53  32  44 NW9       29.74R
PITTSBURGH     PTSUNNY   42  33  70 NW9       29.85S
ROANOKE        SUNNY     50  37  61 VRB3      29.87R
RICHMOND       MOSUNNY   54  38  54 N7        29.80R
RALEIGH        MOSUNNY   52  47  83 NW5       29.81R

$$

ANZ530>537-271400-
MARINE OBSERVATIONS

STATION/POSITION TIME  TEMP    WIND        PRES
                       AIR SEA DIR/SP/G
                 (UTC) (F)     (DEG/KT/KT) (MB)
THOMAS PT LIGHT  1300   51 53  310/  5/  7 1008.9R
BALT KEY BRIDGE  1200   50     280/  6/  7 1007.7R
COVE POINT       1200   51     360/ 10/ 13 1008.3R
LEWISETTA        1200   53 57              1007.4R
SOLOMONS ISLAND  1200      54                N/A
PINEY POINT      1200          340/  5/  5   N/A

$$



USA.gov is the U.S. government's official web portal to all federal, state and local government web resources and services.